Location: Cazavet
(43.0017°N, 1.0431°E)
Time: 08:36:28
(UTC+00:00)

Cosmos 1140 Rocket - Pass Details

Date: 18 January 2026
Orbit: 739 x 763 km, 74.1° (Epoch: 9 February)

Event Time Altitude Azimuth Distance (km) Brightness Sun altitude
Rises 06:08:18 0° 225° (SW) 3,162 6.4 -13.5°
Reaches altitude 10° 06:10:51 10° 235° (SW) 2,245 5.6 -13.0°
Maximum altitude 06:15:25 33° 299° (WNW) 1,242 4.1 -12.2°
Drops below altitude 10° 06:20:02 10° 3° (N) 2,268 5.8 -11.4°
Sets 06:22:38 0° 13° (NNE) 3,200 6.7 -11.0°
